TimeMST,TemperatureF,Dew PointF,Humidity,Sea Level PressureIn,VisibilityMPH,Wind Direction,Wind SpeedMPH,Gust SpeedMPH,PrecipitationIn,Events,Conditions,WindDirDegrees,DateUTC
12:54 AM,61.0,23.0,23,29.87,10.0,WSW,11.5,-,N/A,,Clear,240,2012-10-06 07:54:00
1:54 AM,57.9,23.0,26,29.89,10.0,NW,10.4,-,N/A,,Clear,310,2012-10-06 08:54:00
2:54 AM,57.0,24.1,28,29.88,10.0,Calm,Calm,-,N/A,,Clear,0,2012-10-06 09:54:00
3:54 AM,57.0,23.0,27,29.88,10.0,Calm,Calm,-,N/A,,Clear,0,2012-10-06 10:54:00
4:54 AM,55.0,25.0,31,29.88,10.0,Calm,Calm,-,N/A,,Clear,0,2012-10-06 11:54:00
5:54 AM,55.0,27.0,34,29.90,10.0,SSW,6.9,-,N/A,,Clear,200,2012-10-06 12:54:00
6:54 AM,57.0,28.0,33,29.92,10.0,SW,5.8,-,N/A,,Clear,230,2012-10-06 13:54:00
7:54 AM,60.1,30.0,32,29.94,10.0,Calm,Calm,-,N/A,,Clear,0,2012-10-06 14:54:00
8:54 AM,68.0,30.9,25,29.91,10.0,West,11.5,17.3,N/A,,Clear,280,2012-10-06 15:54:00
9:54 AM,71.1,30.9,23,29.88,10.0,West,12.7,-,N/A,,Clear,260,2012-10-06 16:54:00
10:54 AM,71.6,28.4,20,30.11,10.0,West,13.8,20.7,N/A,,Clear,270,2012-10-06 17:54:00
11:54 AM,73.9,26.1,17,29.84,10.0,WSW,8.1,-,N/A,,Clear,240,2012-10-06 18:54:00
12:54 PM,75.0,27.0,17,29.81,10.0,West,8.1,19.6,N/A,,Clear,280,2012-10-06 19:54:00
1:54 PM,77.0,27.0,16,29.78,10.0,WNW,11.5,21.9,N/A,,Clear,300,2012-10-06 20:54:00
2:54 PM,78.1,26.1,15,29.77,10.0,WNW,11.5,-,N/A,,Clear,290,2012-10-06 21:54:00
3:54 PM,78.1,24.1,14,29.75,10.0,West,9.2,20.7,N/A,,Partly Cloudy,280,2012-10-06 22:54:00
4:54 PM,73.0,26.1,17,29.78,10.0,SW,15.0,24.2,N/A,,Clear,230,2012-10-06 23:54:00
5:54 PM,70.0,28.9,22,29.79,10.0,SW,12.7,-,N/A,,Clear,230,2012-10-07 00:54:00
6:54 PM,66.9,30.0,25,29.82,10.0,SW,11.5,-,N/A,,Clear,230,2012-10-07 01:54:00
7:54 PM,64.9,30.0,27,29.83,10.0,WSW,16.1,-,N/A,,Clear,240,2012-10-07 02:54:00
8:54 PM,62.1,28.9,29,29.81,10.0,WSW,16.1,-,N/A,,Clear,240,2012-10-07 03:54:00
9:54 PM,61.0,28.9,30,29.82,10.0,WSW,13.8,-,N/A,,Clear,240,2012-10-07 04:54:00
10:54 PM,60.1,32.0,35,29.83,10.0,WSW,9.2,-,N/A,,Clear,240,2012-10-07 05:54:00
11:54 PM,55.4,30.2,38,30.07,10.0,South,5.8,-,N/A,,Clear,170,2012-10-07 06:54:00